FW6634 Weather Reports


Display with metric or nautical units.
time (UTC)temp
F
wind
direction
speed
MPH
gust
MPH
rain 1hr
in
rain 24hr
in
rain mn
in
humidity
%
barometer
mb
20260505041503 58 196 0.0 1.0 0.00 0.00 0.00 74 1014.4
20260505041201 57 56 0.0 1.0 0.00 0.00 0.00 75 1014.3
20260505040602 56 53 0.0 1.0 0.00 0.00 0.00 77 1014.3
20260505040006 56 228 0.0 3.0 0.00 0.00 0.00 81 1014.3
20260505035100 54 160 0.0 0.0 0.00 0.00 0.00 87 1014.2
20260505034500 53 160 0.0 0.0 0.00 0.00 0.00 89 1014.1
20260505033601 53 152 0.0 0.0 0.00 0.00 0.00 89 1014.2
20260505033001 54 152 0.0 0.0 0.00 0.00 0.00 89 1014.2
20260505032703 54 152 0.0 0.0 0.00 0.00 0.00 88 1014.3
20260505032104 54 152 0.0 0.0 0.00 0.00 0.00 88 1014.3
20260505031500 54 152 0.0 0.0 0.00 0.00 0.00 88 1014.2
20260505030600 55 152 0.0 0.0 0.00 0.00 0.00 87 1014.3
20260505030012 55 152 0.0 0.0 0.00 0.00 0.00 87 1014.4
20260505025102 56 152 0.0 0.0 0.00 0.00 0.00 85 1014.5
20260505024200 56 152 0.0 0.0 0.00 0.00 0.00 85 1014.5
20260505023600 56 152 0.0 0.0 0.00 0.00 0.00 85 1014.3
20260505023002 56 152 0.0 0.0 0.00 0.00 0.00 84 1014.5
20260505022700 56 152 0.0 0.0 0.00 0.00 0.00 86 1014.4
20260505022101 56 152 0.0 0.0 0.00 0.00 0.00 88 1014.4
20260505020600 56 152 0.0 0.0 0.00 0.00 0.00 86 1014.5
20260505020002 57 152 0.0 0.0 0.00 0.00 0.00 86 1014.4
20260505015102 57 152 0.0 0.0 0.00 0.00 0.00 85 1014.4
20260505014200 57 152 0.0 0.0 0.00 0.00 0.00 84 1014.4
20260505013600 57 151 0.0 0.0 0.00 0.00 0.00 84 1014.1
20260505012700 57 152 0.0 0.0 0.00 0.00 0.00 83 1014.1
20260505012100 58 152 0.0 0.0 0.00 0.00 0.00 83 1014.0
20260505011202 59 152 0.0 0.0 0.00 0.00 0.00 82 1014.0
20260505010601 59 152 0.0 0.0 0.00 0.00 0.00 81 1013.9
20260505010002 60 152 0.0 0.0 0.00 0.00 0.00 80 1013.7
20260505005700 60 152 0.0 0.0 0.00 0.00 0.00 79 1013.9
20260505005100 61 152 0.0 0.0 0.00 0.00 0.00 78 1013.7
20260505003604 63 152 0.0 0.0 0.00 0.00 0.00 74 1013.6
20260505002700 65 152 0.0 0.0 0.00 0.00 0.00 71 1013.7
20260505002104 66 151 0.0 0.0 0.00 0.00 0.00 69 1013.6
20260505001200 67 152 0.0 0.0 0.00 0.00 0.00 64 1013.5
20260505000600 69 152 0.0 0.0 0.00 0.00 0.00 59 1013.5
20260505000003 70 151 0.0 0.0 0.00 0.00 0.00 57 1013.6
20260504235702 71 151 0.0 0.0 0.00 0.00 0.00 55 1013.5
20260504235101 73 152 0.0 0.0 0.00 0.00 0.00 53 1013.5
20260504234202 76 152 0.0 0.0 0.00 0.00 0.00 49 1013.4
20260504233601 77 152 0.0 0.0 0.00 0.00 0.00 47 1013.3
20260504233001 77 151 0.0 0.0 0.00 0.00 0.00 45 1013.3
20260504232100 77 153 0.0 3.0 0.00 0.00 0.00 46 1013.3
20260504231200 77 131 0.0 2.0 0.00 0.00 0.00 45 1013.2
20260504230600 78 257 0.0 2.0 0.00 0.00 0.00 47 1013.2
20260504230003 79 134 0.0 1.0 0.00 0.00 0.00 44 1013.2
20260504225700 80 174 0.0 1.0 0.00 0.00 0.00 45 1013.3
20260504225102 80 318 0.0 1.0 0.00 0.00 0.00 43 1013.3
20260504223600 78 212 0.0 3.0 0.00 0.00 0.00 46 1013.4
20260504222700 78 127 0.0 3.0 0.00 0.00 0.00 47 1013.4
20260504222100 77 146 0.0 3.0 0.00 0.00 0.00 46 1013.5
20260504220600 76 101 0.0 3.0 0.00 0.00 0.00 46 1013.6
20260504220003 76 76 0.0 4.0 0.00 0.00 0.00 46 1013.6
20260504215702 76 110 0.0 4.0 0.00 0.00 0.00 48 1013.6
20260504215104 76 204 0.0 2.0 0.00 0.00 0.00 50 1013.6
20260504214202 75 128 0.0 1.0 0.00 0.00 0.00 51 1013.7
20260504213603 75 133 0.0 2.0 0.00 0.00 0.00 48 1013.7
20260504212702 75 141 0.0 6.0 0.00 0.00 0.00 47 1013.7
20260504212059 75 268 2.0 6.0 0.00 0.00 0.00 45 1013.6
20260504211200 76 238 0.0 7.0 0.00 0.00 0.00 48 1013.6
20260504210600 75 266 1.0 8.0 0.00 0.00 0.00 46 1013.6
20260504210002 75 303 3.0 6.0 0.00 0.00 0.00 44 1013.6
20260504205700 76 250 1.0 6.0 0.00 0.00 0.00 49 1013.5
20260504205100 76 248 0.0 6.0 0.00 0.00 0.00 48 1013.5
20260504203600 76 229 1.0 7.0 0.00 0.00 0.00 45 1013.6
20260504202659 76 152 2.0 7.0 0.00 0.00 0.00 45 1013.5
20260504202059 76 261 1.0 7.0 0.00 0.00 0.00 43 1013.6
20260504201201 76 224 2.0 9.0 0.00 0.00 0.00 45 1013.7
20260504200600 76 242 1.0 7.0 0.00 0.00 0.00 44 1013.6
20260504200002 76 174 1.0 5.0 0.00 0.00 0.00 44 1013.7
20260504195700 76 357 1.0 6.0 0.00 0.00 0.00 42 1013.8
20260504195100 76 117 0.0 7.0 0.00 0.00 0.00 45 1014.1
20260504194200 75 248 2.0 6.0 0.00 0.00 0.00 45 1014.0
20260504193600 75 240 1.0 14.0 0.00 0.00 0.00 44 1014.3
20260504193002 75 209 5.0 14.0 0.00 0.00 0.00 43 1014.5
20260504192701 75 236 2.0 11.0 0.00 0.00 0.00 43 1014.3
20260504192100 76 222 2.0 15.0 0.00 0.00 0.00 42 1014.4
20260504190600 77 257 4.0 13.0 0.00 0.00 0.00 40 1014.5
20260504190003 77 145 0.0 11.0 0.00 0.00 0.00 40 1014.6
20260504185100 77 235 2.0 8.0 0.00 0.00 0.00 41 1014.6
20260504184201 76 297 2.0 11.0 0.00 0.00 0.00 39 1014.8
20260504183600 76 221 2.0 9.0 0.00 0.00 0.00 42 1014.9
20260504182700 76 289 3.0 11.0 0.00 0.00 0.00 39 1015.1
20260504182100 75 221 5.0 16.0 0.00 0.00 0.00 38 1015.1
20260504181203 77 302 2.0 7.0 0.00 0.00 0.00 41 1015.2
20260504180559 76 120 4.0 10.0 0.00 0.00 0.00 39 1015.3
20260504180003 76 118 1.0 13.0 0.00 0.00 0.00 38 1015.1
20260504175702 75 228 3.0 13.0 0.00 0.00 0.00 41 1015.2
20260504175100 76 252 4.0 11.0 0.00 0.00 0.00 39 1015.2
20260504173559 75 188 2.0 7.0 0.00 0.00 0.00 41 1015.4
20260504172659 75 264 1.0 8.0 0.00 0.00 0.00 38 1015.6
20260504172100 74 269 1.0 10.0 0.00 0.00 0.00 39 1015.5
20260504171201 74 113 0.0 8.0 0.00 0.00 0.00 41 1015.8
20260504170600 74 142 0.0 7.0 0.00 0.00 0.00 41 1015.7
20260504150603 68 170 3.0 9.0 0.00 0.00 0.00 49 1017.2
20260504141159 62 236 2.0 5.0 0.00 0.00 0.00 58 1017.3
20260504140600 62 291 1.0 3.0 0.00 0.00 0.00 60 1017.3
20260504130600 56 243 2.0 3.0 0.00 0.00 0.00 66 1017.6
20260504110559 44 220 0.0 0.0 0.00 0.00 0.00 84 1017.9
20260504100559 42 270 0.0 0.0 0.00 0.00 0.00 90 1017.7
20260504081200 43 271 0.0 0.0 0.00 0.00 0.00 90 1017.7
20260504080600 43 271 0.0 0.0 0.00 0.00 0.00 89 1017.8
20260504050600 39 271 0.0 0.0 0.00 0.00 0.00 93 1017.8
20260504050002 39 271 0.0 0.0 0.00 0.00 0.00 93 1017.8
20260504045659 39 271 0.0 0.0 0.00 0.00 0.00 93 1017.8
20260504045059 39 271 0.0 0.0 0.00 0.00 0.00 93 1017.7